Location: Fort Wayne
(41.1310°N, 85.1290°W)
Time: 19:53:14
(UTC-05:00)

Tiros 1 despin weight - Visible Passes

Search period start: 22 November 2014 00:00
Search period end: 02 December 2014 00:00
Orbit: 600 x 651 km, 48.2° (Epoch: 21 November)

Date Brightness Start Highest point End Pass type
(mag) Time Alt. Az. Time Alt. Az. Time Alt. Az.
23 Nov ? 20:06:06 10° SSW 20:06:49 14° SSW 20:06:49 14° SSW visible
24 Nov ? 18:45:17 10° S 18:48:07 16° SE 18:48:10 16° SE visible
24 Nov ? 20:24:40 10° SW 20:25:25 15° SW 20:25:25 15° SW visible
25 Nov ? 19:02:39 10° SSW 19:06:41 32° SE 19:06:41 32° SE visible
25 Nov ? 20:43:39 10° WSW 20:43:55 12° WSW 20:43:55 12° WSW visible
26 Nov ? 17:43:00 10° SSE 17:44:28 11° SE 17:45:56 10° ESE visible
26 Nov ? 19:20:56 10° SW 19:25:07 59° SSE 19:25:07 59° SSE visible
27 Nov ? 17:59:21 10° S 18:02:58 24° SE 18:06:14 12° E visible
27 Nov ? 19:39:45 10° WSW 19:43:27 57° W 19:43:27 57° W visible
28 Nov ? 18:17:17 10° SW 18:21:37 45° SE 18:24:30 20° ENE visible
28 Nov ? 19:58:52 10° W 20:01:43 34° WNW 20:01:43 34° WNW visible
29 Nov ? 18:35:52 10° WSW 18:40:25 83° SSE 18:42:42 30° ENE visible
29 Nov ? 20:18:10 10° W 20:19:55 21° WNW 20:19:55 21° WNW visible
30 Nov ? 18:54:51 10° WSW 18:59:22 61° NNW 19:00:51 39° NE visible
30 Nov ? 20:37:28 10° WNW 20:38:04 13° WNW 20:38:04 13° WNW visible
01 Dec ? 19:14:05 10° W 19:18:27 43° NNW 19:18:57 41° N visible
